User: anonymous   Login
Location: Brno
(49.2000°N, 16.6330°E)
Time: 03:13:01
(UTC+02:00)
Language:

Cosmos 2227 - Orbit

View from above orbital plane
View from above orbital plane
View from above satellite
View from above satellite

Ground track
Ground track

The orbit data is extracted from the following two-line orbital elements,

1 22284U 92093A   16242.22305339  .00000276  00000-0  17222-3 0  9995
2 22284  70.9770 127.5292 0020200 255.3179 104.5704 14.13265987221398
Epoch (UTC): 29 August 2016 05:21:11
Eccentricity: 0.0020200
inclination: 70.9770°
perigee height: 833 km
apogee height: 863 km
right ascension of ascending node: 127.5292°
argument of perigee: 255.3179°
revolutions per day: 14.13265987
mean anomaly at epoch: 104.5704°
orbit number at epoch: 22139

The dashed part of the orbit path shows where the satellite is in the earth's shadow,  

DLR